Weather History for Texarkana, AR

Change the Weather History Date:

Tuesday, January 8, 2013

  Actual Average Record
Temperature  
Mean Temperature 44 °F 43 °F  
Max Temperature 52 °F 53 °F 80 °F (1969)
Min Temperature 36 °F 34 °F 8 °F (1942)
Degree Days  
Heating Degree Days 21 22  
Month to date heating degree days 195 176  
Since 1 July heating degree days 1093 1243  
Cooling Degree Days 0 0  
Month to date cooling degree days 0 0  
Year to date cooling degree days 0 0  
Moisture  
Dew Point 43 °F    
Average Humidity 88    
Maximum Humidity 100    
Minimum Humidity 76    
Precipitation  
Precipitation 0.38 in 0.11 in 2.05 in (1930)
Month to date precipitation 0.39 1.00  
Year to date precipitation 0.39 1.00  
Snow  
Snow 0.00 in - - ()
Month to date snowfall 0.0  
Since 1 July snowfall 2.0  
Snow Depth 0.00 in    
Sea Level Pressure  
Sea Level Pressure 30.10 in    
Wind  
Wind Speed 4 mph (ENE)    
Max Wind Speed 12 mph    
Max Gust Speed 17 mph    
Visibility 6 miles    
Events Rain    
T = Trace of Precipitation, MM = Missing Value Source: NWS Daily Summary

Daily Weather History Graph

Daily Weather History Graph

Search for Another Location

Airport:

Trip Planner

Search our weather history database for the weather conditions in past years. The results will help you decide how hot, cold, wet, or windy it might be!

Date:

Astronomy

Jan. 08, 2013 Rise Set
Actual Time 7:20 AM CST 5:25 PM CST
Civil Twilight 6:53 AM CST 5:52 PM CST
Nautical Twilight 6:22 AM CST 6:23 PM CST
Astronomical Twilight 5:52 AM CST 6:53 PM CST
Moon 3:55 AM CST (1/8) 2:27 PM CST (1/8)
Length of Visible Light 10h 58m
Length of Day
10h 04m
Waning Crescent, 13% of the Moon is Illuminated
Jan 8
Waning Crescent
Jan 11
New
Jan 18
First Quarter
Jan 26
Full
Feb 3
Last Quarter

Hourly Weather History & Observations

Time (CST) Temp. Windchill Dew Point Humidity Pressure Visibility Wind Dir Wind Speed Gust Speed Precip Events Conditions
12:53 AM 37.0 °F - 32.0 °F 82% 30.16 in 10.0 mi Calm Calm - N/A   Mostly Cloudy
1:53 AM 39.9 °F 37.8 °F 33.1 °F 77% 30.17 in 10.0 mi ESE 3.5 mph - N/A   Overcast
2:53 AM 39.0 °F - 34.0 °F 82% 30.16 in 10.0 mi Calm Calm - N/A   Overcast
3:53 AM 39.0 °F - 34.0 °F 82% 30.16 in 10.0 mi Calm Calm - N/A   Overcast
4:53 AM 37.9 °F - 34.0 °F 86% 30.13 in 10.0 mi Calm Calm - N/A   Partly Cloudy
5:53 AM 39.0 °F 35.7 °F 35.1 °F 86% 30.14 in 10.0 mi ENE 4.6 mph - N/A   Overcast
6:53 AM 39.9 °F 35.8 °F 35.1 °F 83% 30.15 in 10.0 mi NE 5.8 mph - N/A   Overcast
8:35 AM 39.2 °F 35.0 °F 35.6 °F 87% 30.18 in 8.0 mi ENE 5.8 mph - 0.00 in Rain Light Rain
8:53 AM 41.0 °F 39.0 °F 37.0 °F 86% 30.18 in 8.0 mi ENE 3.5 mph - 0.00 in Rain Light Rain
9:25 AM 42.8 °F 38.6 °F 35.6 °F 76% 30.18 in 9.0 mi ENE 6.9 mph - 0.00 in   Overcast
9:53 AM 42.1 °F 39.2 °F 37.0 °F 82% 30.20 in 9.0 mi ENE 4.6 mph - 0.00 in   Overcast
10:15 AM 42.8 °F 39.3 °F 37.4 °F 81% 30.19 in 9.0 mi East 5.8 mph - N/A   Overcast
10:41 AM 44.6 °F 41.4 °F 37.4 °F 76% 30.17 in 10.0 mi East 5.8 mph - N/A   Overcast
10:53 AM 45.0 °F 41.2 °F 37.9 °F 76% 30.15 in 10.0 mi ENE 6.9 mph - N/A   Overcast
11:05 AM 44.6 °F 40.7 °F 37.4 °F 76% 30.16 in 10.0 mi ENE 6.9 mph - N/A   Overcast
11:35 AM 46.4 °F 44.3 °F 37.4 °F 71% 30.14 in 10.0 mi ENE 4.6 mph - N/A   Overcast
11:53 AM 46.0 °F 44.8 °F 39.0 °F 76% 30.14 in 10.0 mi ENE 3.5 mph - N/A   Overcast
12:53 PM 48.0 °F - 39.9 °F 74% 30.10 in 10.0 mi Calm Calm - 0.00 in Rain Light Rain
1:13 PM 46.4 °F 44.3 °F 42.8 °F 87% 30.09 in 2.0 mi ENE 4.6 mph - 0.06 in Rain Heavy Rain
1:21 PM 46.4 °F 44.3 °F 44.6 °F 93% 30.08 in 3.0 mi ENE 4.6 mph - 0.07 in Rain Light Rain
1:53 PM 46.9 °F - 45.0 °F 93% 30.10 in 3.0 mi NNW 4.6 mph - 0.11 in Rain Rain
2:03 PM 46.4 °F 42.9 °F 44.6 °F 93% 30.09 in 2.5 mi North 6.9 mph - 0.02 in Rain Rain
2:14 PM 46.4 °F 42.9 °F 44.6 °F 93% 30.06 in 3.0 mi East 6.9 mph - 0.03 in Rain Rain
2:37 PM 46.4 °F 41.9 °F 44.6 °F 93% 30.04 in 3.0 mi ESE 9.2 mph - 0.05 in Rain Light Rain
2:53 PM 46.9 °F - 46.0 °F 97% 30.03 in 4.0 mi East 8.1 mph - 0.07 in Rain Light Rain
3:22 PM 48.2 °F - 46.4 °F 93% 30.05 in 2.5 mi NNW 8.1 mph - 0.03 in Rain Rain
3:27 PM 48.2 °F - 46.4 °F 93% 30.05 in 3.0 mi North 5.8 mph - 0.04 in Rain Rain
3:40 PM 48.2 °F - 48.2 °F 100% 30.04 in 3.0 mi East 4.6 mph - 0.05 in Rain Light Rain
3:53 PM 48.9 °F - 48.0 °F 97% 30.04 in 5.0 mi Variable 4.6 mph - 0.05 in   Overcast
4:19 PM 48.2 °F - 48.2 °F 100% 30.06 in 2.5 mi East 3.5 mph - 0.03 in Rain Light Rain
4:27 PM 50.0 °F - 48.2 °F 94% 30.07 in 2.0 mi NNW 3.5 mph - 0.04 in Rain Rain
4:32 PM 50.0 °F - 48.2 °F 94% 30.07 in 1.8 mi WNW 5.8 mph - 0.06 in Rain Rain
4:40 PM 50.0 °F - 48.2 °F 94% 30.06 in 1.0 mi ESE 6.9 mph - 0.11 in Rain Rain
4:46 PM 50.0 °F - 48.2 °F 94% 30.05 in 2.0 mi SE 9.2 mph - 0.12 in Rain Rain
4:53 PM 50.0 °F - 48.9 °F 96% 30.04 in 2.0 mi ESE 9.2 mph - 0.14 in Rain Heavy Rain
5:05 PM 50.0 °F - 48.2 °F 94% 30.05 in 4.0 mi ESE 9.2 mph - 0.01 in Rain Light Rain
5:26 PM 51.8 °F - 50.0 °F 94% 30.05 in 8.0 mi SE 6.9 mph - 0.01 in   Mostly Cloudy
6:53 PM 52.0 °F - 51.1 °F 97% 30.04 in 7.0 mi ESE 4.6 mph - N/A   Overcast
7:53 PM 50.0 °F - 48.9 °F 96% 30.08 in 3.0 mi Calm Calm - N/A   Overcast
8:06 PM 48.2 °F - 48.2 °F 100% 30.07 in 2.5 mi NE 3.5 mph - N/A   Overcast
8:35 PM 48.2 °F - 48.2 °F 100% 30.08 in 3.0 mi North 5.8 mph - N/A   Overcast
8:53 PM 48.9 °F - 48.0 °F 97% 30.09 in 3.0 mi NNE 6.9 mph - N/A   Overcast
9:53 PM 48.9 °F - 48.0 °F 97% 30.11 in 4.0 mi NE 4.6 mph - N/A   Overcast
10:53 PM 48.9 °F - 48.0 °F 97% 30.11 in 5.0 mi NE 9.2 mph - N/A   Overcast
11:53 PM 48.9 °F - 48.0 °F 97% 30.13 in 5.0 mi NE 6.9 mph - 0.00 in   Overcast